User: anonymous   Login
Location: Unspecified
(0.0000°N, 0.0000°E)
Time: 22:39:13
(UTC+00:00)
Language:

BADR-B - Orbit

View from above orbital plane
View from above orbital plane
View from above satellite
View from above satellite

Ground track
Ground track

The orbit data is extracted from the following two-line orbital elements,

1 27003U 01056C   18291.38874186 -.00000023  00000-0  22936-4 0  9992
2 27003  99.4242  64.6540 0020764 144.8055 215.4467 13.70238276842962
Epoch (UTC): 18 October 2018 09:19:47
Eccentricity: 0.0020764
inclination: 99.4242°
perigee height: 983 km
apogee height: 1014 km
right ascension of ascending node: 64.6540°
argument of perigee: 144.8055°
revolutions per day: 13.70238276
mean anomaly at epoch: 215.4467°
orbit number at epoch: 84296

The dashed part of the orbit path shows where the satellite is in the earth's shadow,  

DLR